Wind_Speed
54 54 52 47 43 45 48 49 53 58 56 50 46 44 43 43 40 34 33 37 38 39 38 30 28 38 47 48 48 48 46 45 45 44 42 40 38 37 36 34 31 28 25 22 19 18 18 17 16 16 15 14 15 17 17 17 17 18 19 19 18 17 14 11 9 8 8 11 12 12 12 12 10 9 8 7 7 6 7 7 7 8 9 8 7 7 8 9
53 56 55 50 45 43 47 49 50 56 57 52 48 44 42 43 42 36 32 35 38 38 37 34 29 30 39 47 49 48 47 47 47 47 44 42 40 39 37 34 31 28 25 22 20 18 18 17 16 16 15 14 14 15 17 17 16 16 19 21 20 17 15 13 11 9 10 11 11 11 12 12 12 10 10 9 7 7 7 7 7 8 8 9 8 8 9 10
52 53 57 54 49 45 46 49 49 53 57 55 50 42 37 41 43 38 34 33 36 37 36 35 32 29 30 41 49 49 49 49 49 48 44 42 40 38 36 34 31 27 24 22 20 19 18 17 16 16 16 15 15 14 15 17 17 17 18 21 21 18 16 15 12 11 12 12 12 11 11 12 13 13 12 10 9 8 6 5 6 6 6 8 8 8 9 10
56 53 56 56 53 49 46 47 48 50 56 57 53 42 34 39 43 41 37 34 34 34 35 35 34 32 27 33 47 51 49 50 50 46 43 42 39 38 36 33 30 26 23 22 20 19 18 18 16 16 16 16 15 14 15 17 19 20 20 20 20 19 18 17 15 12 13 14 13 12 12 12 12 14 14 12 10 6 3 2 5 5 6 8 9 9 10 10
56 55 56 57 56 54 49 45 47 49 53 57 56 46 35 36 41 42 40 36 35 32 32 35 35 36 31 28 39 48 48 47 47 44 43 42 39 37 34 32 29 26 24 22 20 19 19 18 16 16 17 17 15 14 15 16 19 21 23 21 19 19 20 21 19 15 14 15 15 14 13 12 12 14 13 13 10 5 3 2 5 7 9 10 11 12 12 12
49 52 55 59 59 58 53 45 46 50 51 55 58 51 39 36 37 41 42 38 37 34 32 34 34 36 37 31 32 41 46 43 39 41 43 40 38 36 33 31 30 27 25 22 21 19 18 18 17 16 18 18 16 15 15 15 18 20 21 21 19 18 18 21 22 18 16 17 16 15 15 14 14 14 13 13 9 6 6 5 5 8 12 13 13 15 14 13
44 48 51 59 62 61 57 48 45 50 51 52 59 58 46 38 36 37 41 40 37 36 33 33 34 35 38 35 30 34 42 41 34 35 42 40 36 36 34 32 31 28 25 23 21 20 18 17 15 15 15 17 17 17 17 17 18 18 17 18 19 18 18 19 22 20 18 18 18 16 16 15 16 16 16 14 9 8 9 7 8 10 13 14 15 15 14 14
41 44 46 55 63 62 60 55 47 48 52 52 57 62 53 40 38 38 37 41 39 36 35 33 34 35 36 37 33 32 35 36 32 28 33 38 37 35 34 34 32 29 27 24 22 21 19 16 14 13 13 15 17 18 17 17 18 17 16 16 17 17 18 18 20 21 20 19 19 18 16 17 18 18 18 13 9 11 11 9 11 12 14 16 15 15 15 15
39 41 42 49 56 57 60 61 53 48 50 53 55 62 61 45 39 41 37 40 42 38 36 34 35 36 37 38 36 39 35 28 29 25 22 28 32 32 31 32 32 31 29 25 24 23 20 16 15 14 13 14 16 18 18 18 17 15 14 16 16 16 18 18 19 20 22 21 20 19 17 18 19 20 19 13 11 13 13 11 12 13 15 16 16 16 16 17
38 39 40 44 49 50 55 61 60 53 48 52 55 59 65 52 39 42 39 39 43 42 40 37 37 38 39 40 40 48 40 26 27 25 19 21 26 28 28 28 30 30 27 25 23 22 19 18 17 16 16 16 16 18 19 18 17 15 15 16 17 17 18 19 19 20 22 23 22 20 19 19 20 22 20 15 14 15 15 13 12 14 16 17 17 17 18 18
37 38 39 42 46 45 49 58 62 60 52 49 53 57 65 60 44 40 38 38 42 44 42 38 39 40 40 40 44 51 42 30 28 25 20 20 23 26 26 25 27 27 25 24 22 21 21 21 20 19 19 18 18 20 22 21 19 17 16 17 18 18 19 20 20 20 22 23 23 22 22 21 21 22 20 15 15 17 17 15 13 13 15 17 18 18 19 19
35 37 39 40 44 44 44 53 59 62 59 50 49 54 63 65 54 41 35 39 43 44 43 39 39 42 41 42 46 46 37 34 32 27 26 23 22 24 25 24 23 22 22 22 22 22 22 23 22 21 21 21 21 21 22 22 20 18 17 18 18 19 19 19 19 19 21 23 23 23 24 24 23 20 19 17 16 17 18 17 15 14 15 17 19 20 19 19
35 35 37 37 40 42 40 48 55 57 62 55 47 49 59 66 62 49 35 35 41 43 44 42 39 40 42 45 47 42 35 37 34 30 32 29 25 25 26 26 23 21 22 21 21 22 22 23 23 24 23 23 23 21 19 18 18 17 17 18 18 19 19 17 18 19 21 23 24 24 24 26 23 20 20 19 17 17 18 17 16 15 15 16 19 21 20 21
36 34 35 36 37 39 37 42 51 52 55 58 51 48 55 61 66 61 42 31 34 39 44 44 40 41 43 45 45 41 37 38 37 34 34 34 31 30 29 28 26 25 24 23 22 21 21 22 23 25 26 25 24 23 20 17 15 15 16 18 18 19 19 16 16 20 21 23 26 25 27 29 24 20 22 21 18 18 18 17 17 16 17 17 18 20 21 22
35 34 34 35 35 36 35 37 45 49 50 55 55 49 50 56 64 66 50 35 32 36 44 45 43 44 47 48 45 42 40 41 43 39 37 35 33 33 33 31 29 28 26 26 26 24 23 23 25 27 26 25 24 24 21 19 17 15 15 15 16 19 18 16 17 20 22 24 27 28 27 30 28 23 25 25 21 20 19 18 18 18 18 18 18 19 21 23
34 34 33 34 34 34 34 34 39 46 47 52 58 53 50 51 58 65 57 44 35 33 43 47 47 47 47 50 48 44 45 45 44 42 40 37 35 33 32 31 30 28 28 27 26 26 26 25 26 27 26 25 25 25 22 20 19 18 16 13 15 19 19 18 18 20 22 23 27 31 27 27 28 25 26 27 23 21 22 20 19 19 19 19 19 19 20 22
33 34 33 33 34 33 33 33 35 39 42 50 58 57 54 50 52 59 60 57 43 31 39 47 49 49 47 47 49 48 48 46 43 44 43 40 37 34 31 31 31 29 28 27 27 27 27 28 28 27 26 25 25 26 23 21 20 17 17 19 20 21 21 21 19 18 21 24 27 32 34 31 28 25 26 28 26 24 24 23 21 20 20 19 19 19 20 21
34 33 33 33 33 34 33 33 34 35 36 44 55 57 56 54 51 55 59 64 51 31 36 49 50 49 49 50 52 51 50 46 42 42 43 42 39 37 34 32 31 30 29 29 30 29 28 28 28 27 28 27 27 28 28 24 23 21 22 24 24 24 24 23 20 18 18 23 27 31 36 37 32 28 27 29 29 26 25 25 23 22 21 20 20 20 20 21
34 34 33 33 33 33 33 33 33 34 33 37 46 49 53 55 54 55 59 63 57 39 38 52 59 55 52 56 56 51 49 46 41 40 42 42 41 39 37 34 32 31 33 34 32 31 30 28 29 31 32 32 31 31 31 26 23 24 26 26 24 24 25 22 20 20 18 21 26 30 35 38 36 33 30 30 31 29 27 27 27 24 23 22 21 21 21 21
35 34 33 33 33 33 33 33 33 34 32 32 37 40 46 53 55 56 60 61 59 49 40 43 56 60 55 56 56 51 49 45 42 42 42 42 43 42 39 36 35 34 35 37 34 32 30 30 34 37 37 35 33 31 29 26 24 24 25 26 25 25 25 22 20 20 20 22 25 27 32 37 38 38 35 33 34 35 30 28 29 27 24 23 22 21 21 20
35 34 34 33 33 34 33 33 33 33 33 32 34 37 43 50 54 56 59 61 59 55 45 34 39 56 61 57 56 53 51 48 43 43 43 43 43 42 41 38 38 38 36 35 34 32 32 36 39 38 35 31 29 27 26 26 27 27 26 25 25 26 27 24 22 21 21 24 26 27 31 36 39 40 39 37 38 40 36 31 29 27 25 23 22 22 22 21
34 34 34 33 34 34 34 34 33 33 34 33 35 39 42 47 53 56 55 56 56 55 53 39 32 49 61 59 58 55 52 52 47 45 45 44 44 43 42 41 39 40 38 35 33 33 36 41 41 35 30 25 24 25 25 27 29 29 28 26 26 27 27 25 24 23 23 25 27 28 33 38 38 39 40 40 40 41 41 39 34 30 28 26 24 23 23 23
35 36 35 35 35 34 35 35 34 34 34 35 37 38 40 42 48 55 53 51 53 52 54 49 39 42 49 54 62 59 55 56 55 52 49 47 48 46 43 42 40 39 39 40 38 38 40 42 41 36 29 26 26 27 27 30 31 31 30 29 29 29 27 25 23 21 23 26 28 29 34 40 39 39 42 42 42 43 42 43 41 38 35 31 27 26 25 25
35 36 35 36 36 35 37 36 36 35 34 36 37 36 36 37 41 49 50 49 54 52 49 50 49 45 41 45 61 64 59 58 58 55 53 52 51 48 46 44 42 42 41 40 40 40 40 39 36 34 30 28 29 31 33 33 33 33 33 33 32 30 28 26 23 21 22 24 27 29 33 42 44 43 45 44 43 44 44 45 45 44 40 35 32 31 29 27
36 36 36 36 35 37 37 38 39 36 35 37 37 35 33 35 37 41 41 42 52 58 50 48 51 50 43 39 54 66 63 59 59 55 53 55 54 50 47 44 43 45 43 40 39 39 40 37 32 30 31 32 33 35 37 37 36 35 35 35 32 29 27 26 23 21 20 20 23 24 23 31 37 40 44 45 44 45 45 46 47 46 44 41 38 35 32 29
37 37 36 36 35 35 36 39 40 36 37 38 36 35 33 32 34 35 37 35 45 59 55 49 47 48 49 43 50 62 62 60 59 55 54 53 53 51 47 45 44 44 43 40 37 36 40 38 33 31 32 33 35 38 40 38 36 35 36 35 31 29 26 23 20 18 17 16 16 17 16 20 30 35 34 36 42 46 45 46 47 46 45 45 42 37 35 32
37 38 37 36 35 34 35 39 40 38 40 39 36 34 31 32 32 33 34 25 34 53 53 52 49 45 48 46 51 60 58 61 59 55 55 52 51 52 50 49 47 43 43 41 37 37 42 40 35 34 34 37 41 42 41 40 37 37 38 34 30 28 24 20 20 19 18 19 19 19 20 24 33 40 36 33 38 42 43 46 48 47 47 46 44 40 37 35
37 36 37 37 35 35 35 37 39 40 41 38 36 33 31 34 33 35 33 12 15 36 43 49 51 46 43 39 50 62 61 65 62 55 55 52 52 54 52 52 51 47 43 43 42 40 41 41 38 38 38 41 42 40 39 40 38 37 35 31 29 26 24 21 20 22 21 22 25 27 24 21 27 36 36 34 38 41 42 43 46 48 49 48 47 42 39 36
36 35 36 36 35 36 35 37 40 40 40 37 34 32 33 35 33 37 32 12 13 26 27 37 47 48 44 38 46 58 59 60 57 56 56 54 54 56 54 53 51 47 42 41 43 39 37 39 38 39 41 40 39 40 40 39 38 34 27 24 23 22 23 23 22 25 23 21 24 26 22 17 22 34 35 35 40 41 39 38 39 42 46 48 49 46 42 37
36 35 36 36 37 37 36 39 41 40 40 36 32 33 34 35 37 34 19 13 25 31 22 24 40 49 45 42 48 55 57 57 54 56 57 55 55 56 55 52 50 47 42 39 41 38 36 37 37 39 40 41 42 42 40 36 34 31 22 15 12 13 17 18 21 23 19 18 18 18 19 16 18 25 29 34 40 39 37 37 36 37 39 43 45 44 43 39
38 37 37 37 37 37 38 40 40 41 40 36 34 35 35 38 41 29 10 13 27 34 30 24 31 45 47 46 51 55 56 56 57 57 57 56 57 57 55 49 46 43 41 43 42 40 38 37 40 42 42 42 42 40 35 32 33 29 24 17 10 8 11 10 14 16 11 9 9 11 18 20 20 18 14 18 24 25 26 26 27 29 31 36 40 38 36 37
39 39 38 38 37 37 40 40 39 39 39 40 38 35 37 37 36 28 19 20 19 26 39 36 30 38 45 47 50 54 56 56 58 60 61 60 59 61 59 55 53 43 38 44 42 37 38 39 44 44 42 44 40 35 32 30 32 30 26 22 12 5 6 6 6 7 10 10 8 11 13 21 36 39 30 26 28 29 29 25 23 24 23 27 34 34 31 33
40 40 38 39 40 39 40 39 39 39 39 44 40 40 43 31 24 33 36 28 15 15 33 41 36 35 39 47 49 48 50 54 58 59 62 64 62 62 60 59 62 49 40 45 40 30 25 26 38 42 40 45 43 38 38 34 34 34 30 26 20 9 4 6 5 1 9 13 13 14 11 20 38 40 35 35 35 33 32 30 30 29 25 23 28 33 33 33
39 39 38 40 42 41 40 39 40 41 41 45 43 46 46 27 20 38 49 42 20 12 26 37 38 36 37 45 48 46 44 48 58 61 61 64 60 59 57 54 60 55 46 45 40 36 26 18 35 44 40 43 44 40 38 35 32 32 32 31 31 21 7 5 8 4 4 6 10 15 11 16 24 18 15 14 12 12 13 15 19 23 22 21 25 32 33 32
38 39 39 42 44 42 40 40 42 43 44 45 45 50 48 32 31 42 52 53 32 16 26 33 35 38 40 43 48 52 47 44 56 63 63 66 63 62 62 58 59 59 52 44 38 41 36 24 33 45 42 39 41 40 35 32 30 30 31 33 36 30 11 3 8 10 6 4 7 17 20 27 29 24 21 13 6 4 2 3 6 10 14 18 24 30 31 29
39 41 42 46 46 41 40 42 44 46 47 45 46 56 55 42 43 45 46 55 49 30 26 32 38 43 45 44 47 56 52 45 55 61 59 63 63 64 66 63 61 60 55 48 41 40 35 24 26 38 40 34 31 36 37 33 31 31 35 38 39 34 18 5 4 8 6 4 9 16 26 38 36 33 34 28 22 15 7 5 9 11 11 15 20 27 29 27
39 42 46 49 47 42 43 45 46 47 48 51 53 58 57 51 50 49 44 52 58 48 33 33 40 43 45 43 43 50 50 45 53 56 53 55 56 60 64 61 62 62 58 53 47 45 40 25 21 29 37 37 28 26 33 34 31 31 37 42 36 28 23 15 4 1 3 2 8 14 27 35 28 25 25 18 20 24 18 16 17 15 14 13 14 19 23 27
40 43 49 53 49 45 46 47 48 48 48 56 61 58 58 60 57 51 48 51 57 57 46 35 36 40 45 45 43 46 46 47 53 50 46 50 50 58 65 61 63 66 64 58 47 46 44 26 18 26 33 39 34 27 30 35 35 34 35 38 33 21 23 25 10 2 4 2 5 9 18 28 33 36 27 8 4 9 9 9 11 14 15 13 12 14 17 23
39 41 52 57 51 48 49 47 47 48 50 60 65 61 59 63 63 58 53 51 54 59 54 42 37 39 44 47 49 49 45 48 57 51 45 48 48 59 70 67 66 66 65 62 51 46 46 28 18 26 31 34 36 34 36 39 39 35 29 33 36 25 23 30 22 9 5 4 5 5 5 20 38 44 40 32 23 16 12 13 15 15 16 16 16 16 18 21
36 39 56 62 53 48 47 46 48 51 58 65 67 64 61 60 63 65 60 54 53 57 57 50 44 42 44 45 47 53 49 48 58 55 49 54 51 56 67 67 65 66 64 62 52 43 44 34 21 23 27 31 36 40 44 45 44 42 36 36 40 32 23 24 27 23 12 4 3 2 3 22 34 27 21 23 22 20 19 20 18 15 15 16 16 15 14 18
34 41 62 66 55 48 44 45 53 58 63 67 67 67 65 61 60 63 65 61 54 54 57 55 52 49 48 45 45 51 48 46 55 54 48 55 55 52 63 67 65 66 62 58 53 44 42 40 31 27 30 34 39 43 44 43 44 47 45 43 44 41 30 17 17 29 26 12 6 3 5 28 37 25 20 19 13 12 13 13 12 13 15 18 18 17 14 15
35 48 68 65 52 48 46 48 56 60 64 68 70 70 66 61 61 63 67 64 55 53 55 55 55 55 53 52 51 52 48 46 54 54 48 57 63 60 66 71 67 65 64 62 58 49 42 39 33 29 33 35 33 37 41 39 40 43 42 42 42 42 40 27 13 20 26 20 16 6 4 32 43 28 21 19 11 8 8 7 6 7 12 17 20 22 19 15
45 59 70 60 50 48 47 51 59 63 66 68 71 73 68 63 64 65 67 67 61 56 54 53 54 55 57 58 55 55 51 46 51 56 54 57 65 64 62 67 67 62 61 62 57 48 42 37 30 25 26 29 26 31 39 38 37 41 45 48 47 44 47 37 19 14 18 21 22 8 4 36 49 28 14 8 1 1 2 3 4 5 7 11 15 20 20 19
54 64 70 62 54 53 52 56 64 67 69 69 70 74 70 65 66 69 69 70 67 59 54 54 52 52 57 59 58 58 54 46 45 52 53 54 60 62 55 58 65 64 61 61 61 55 45 37 33 23 13 13 15 18 28 37 42 46 49 51 50 48 45 38 27 17 14 23 26 13 12 43 49 27 19 16 11 10 7 4 6 5 6 8 11 16 18 20
53 61 70 65 56 56 57 61 67 71 70 69 71 73 69 61 62 69 71 69 70 64 57 56 54 51 52 52 54 57 57 51 48 50 49 47 52 59 57 53 57 63 64 59 59 58 45 37 41 32 15 12 16 19 31 45 49 48 48 49 51 49 45 43 35 22 18 28 29 23 32 52 43 21 13 12 12 12 9 6 5 4 7 10 12 14 15 16
52 59 65 60 53 57 61 62 68 74 73 69 69 72 71 62 57 64 68 68 69 67 60 57 56 53 51 50 50 53 55 52 48 51 51 46 45 53 60 59 54 57 62 58 55 54 44 38 46 44 36 36 36 35 41 47 48 48 47 46 48 48 48 46 37 30 32 29 26 37 51 56 48 30 16 13 14 13 10 8 9 9 10 11 11 15 15 13
51 58 61 51 45 54 62 64 70 75 75 74 70 68 70 66 60 60 64 65 66 66 60 57 57 56 54 54 52 51 54 51 45 49 53 51 48 47 52 57 52 50 58 59 57 53 45 42 47 48 48 49 42 35 35 37 41 46 47 44 44 45 46 45 41 46 46 26 23 50 62 59 57 45 30 24 20 16 15 15 16 18 16 15 13 14 17 15
53 58 61 52 48 57 63 67 74 74 74 78 74 69 71 69 64 62 61 60 63 65 61 57 58 60 58 58 56 51 52 50 45 49 54 54 53 47 41 42 43 47 55 56 55 53 47 47 52 51 50 49 41 34 33 31 30 37 43 45 46 45 47 49 50 55 53 38 43 62 60 57 63 57 49 44 32 24 24 25 27 29 26 22 17 14 17 18
56 58 57 54 61 68 65 69 77 74 72 76 72 69 74 73 68 65 62 59 60 65 66 61 58 59 57 60 62 57 55 54 48 49 54 54 54 50 42 37 38 45 52 54 54 53 47 47 50 51 49 47 42 37 35 31 26 27 33 40 46 47 48 51 54 58 59 57 64 65 52 53 61 57 55 53 45 41 40 37 40 39 32 29 24 20 20 18
56 58 56 59 70 72 66 71 79 76 72 72 68 66 73 76 73 68 64 63 62 62 67 66 61 61 59 60 64 63 63 66 63 60 62 59 56 55 51 48 49 48 50 55 57 54 51 48 47 48 44 40 42 41 37 35 33 30 28 30 36 42 46 51 56 61 61 61 65 62 54 58 63 57 53 47 40 38 38 39 42 38 33 32 29 24 23 22
52 55 59 70 74 69 69 73 76 75 72 70 68 66 69 72 73 70 65 65 67 65 64 65 63 63 62 61 66 67 67 71 71 71 74 70 64 62 60 60 60 56 55 57 57 56 56 47 41 43 39 35 42 42 37 35 33 31 30 30 33 40 47 51 54 56 57 58 61 60 59 65 67 61 56 48 37 31 32 37 40 38 34 32 28 24 24 25
46 51 63 75 69 63 70 74 72 71 72 73 73 70 71 72 72 71 63 60 66 68 65 63 62 62 64 65 68 70 70 71 69 68 70 68 64 64 63 59 61 62 62 61 57 56 58 49 40 39 35 31 35 38 38 33 22 23 37 46 49 51 50 47 47 49 51 55 58 60 62 66 65 61 58 54 48 45 44 43 42 40 38 34 30 28 26 27
Wind_Direction
232 227 223 225 219 213 216 218 216 212 210 210 212 217 221 223 225 230 229 225 224 223 221 221 218 215 213 212 208 201 201 206 209 210 209 209 211 214 218 219 218 216 215 217 218 219 224 227 228 227 225 226 227 228 230 232 232 231 229 229 230 228 227 227 227 230 226 218 214 221 230 233 237 240 244 252 256 256 244 228 214 202 199 201 211 211 203 202
233 231 228 229 226 217 213 215 216 213 211 210 213 215 219 224 224 226 230 227 225 224 221 219 220 218 215 216 214 207 203 205 209 210 208 208 210 213 216 219 220 218 216 217 219 219 223 226 228 230 227 227 227 228 229 230 232 232 231 231 231 229 226 225 222 221 223 221 217 221 230 233 231 230 236 241 250 258 248 233 221 211 206 202 205 210 208 209
231 230 228 229 230 222 213 212 215 215 212 210 211 214 221 225 223 223 226 228 227 226 223 219 221 222 220 217 214 212 209 206 210 212 210 210 211 213 215 219 221 221 220 220 221 222 226 226 225 229 231 230 231 230 231 233 233 233 235 235 233 230 229 228 224 220 221 220 218 222 224 223 222 226 231 235 242 244 229 219 219 213 217 215 212 214 212 211
227 229 226 226 228 225 216 210 213 215 213 211 210 209 218 225 223 221 223 226 228 229 225 222 222 222 223 221 214 212 211 210 212 212 212 211 212 214 215 218 221 221 224 225 226 227 228 228 224 227 233 234 235 235 236 236 236 236 236 238 236 231 230 232 232 227 223 218 217 222 221 216 222 229 231 233 231 215 174 204 218 206 212 218 216 216 215 213
224 227 225 223 226 226 221 212 210 215 213 211 209 205 210 221 223 220 220 224 225 228 225 222 223 222 222 224 217 212 211 214 214 213 215 213 212 216 217 219 219 218 222 226 229 231 230 228 225 227 234 236 238 241 243 239 239 239 237 240 239 232 230 231 234 234 229 222 218 222 224 221 227 232 232 232 219 179 157 219 221 204 202 206 208 211 211 209
222 224 223 221 224 226 224 216 209 212 213 210 208 205 206 214 219 219 218 222 224 226 226 222 224 224 222 222 219 214 214 216 217 214 217 217 212 216 220 220 218 214 217 221 226 230 229 228 227 228 231 233 233 236 238 236 237 239 238 241 242 237 233 230 230 232 230 225 222 226 227 225 230 233 235 232 214 192 204 220 228 213 206 204 204 207 207 203
223 223 221 218 222 225 225 221 212 208 211 211 207 206 208 208 212 216 218 220 223 225 225 222 223 225 223 222 217 213 215 217 218 216 217 218 214 215 220 221 218 214 215 216 219 223 223 225 228 228 227 227 228 227 228 231 234 238 239 241 242 241 239 233 229 230 231 227 225 229 231 231 234 234 235 230 214 211 216 217 228 222 215 211 207 208 206 202
224 223 221 217 220 225 224 224 217 206 207 211 207 206 209 207 206 213 217 219 220 223 223 218 218 219 217 219 215 214 217 214 214 216 214 216 215 214 218 221 218 214 215 215 214 218 221 223 230 232 228 226 227 227 229 235 238 240 244 244 244 243 242 239 233 231 231 228 227 230 233 234 236 237 234 226 211 219 222 217 223 223 220 216 214 212 207 204
225 225 224 219 221 224 223 224 222 210 204 208 208 205 209 208 203 208 213 217 217 220 222 216 214 216 215 215 217 223 221 206 208 212 207 210 213 216 220 222 219 213 211 212 213 217 222 226 232 235 232 229 229 232 235 238 241 244 249 250 248 246 243 241 239 237 234 230 229 232 235 235 235 237 233 221 212 223 227 225 225 225 222 219 217 214 210 207
226 226 226 223 224 226 222 222 224 218 205 203 207 206 207 208 204 204 210 217 216 217 221 218 214 215 217 214 217 225 220 200 204 204 197 200 205 212 217 219 218 213 210 212 216 220 227 232 234 236 235 235 233 237 240 241 244 249 252 253 252 250 246 243 242 243 240 234 232 235 239 238 233 233 231 221 219 228 235 234 230 229 227 224 221 216 213 210
226 227 227 225 226 228 225 223 225 225 215 202 204 207 207 208 207 203 207 219 218 215 219 222 219 217 221 218 220 227 219 206 206 197 193 196 194 203 209 210 211 210 212 214 219 222 227 232 234 236 236 236 236 239 244 245 246 249 250 253 253 252 248 245 245 247 245 239 237 240 243 242 235 228 225 221 221 230 237 239 235 234 233 229 226 221 216 212
226 226 228 227 227 229 227 225 226 227 223 211 202 206 208 208 209 202 199 213 218 215 215 219 219 218 221 220 226 230 217 209 210 199 201 199 191 198 202 205 204 205 210 214 220 223 228 233 235 237 238 238 238 240 246 247 247 248 248 251 252 253 248 243 244 246 246 242 240 245 249 247 238 224 219 221 223 229 235 239 239 239 240 235 231 227 222 217
227 226 226 227 227 229 229 226 227 227 228 223 209 204 208 209 209 206 197 201 212 214 212 214 216 215 218 223 229 230 214 208 209 205 210 209 204 208 208 209 207 206 211 214 219 221 227 234 235 237 237 237 237 238 243 246 245 245 245 248 252 256 252 242 241 242 244 242 240 247 253 252 241 221 220 225 225 231 234 236 240 240 242 240 235 232 227 223
228 227 225 226 227 229 230 227 227 227 228 228 218 205 206 209 209 210 206 196 205 215 214 214 216 214 220 229 232 228 218 212 212 211 213 213 212 217 219 219 218 218 220 222 225 226 228 232 233 233 233 234 234 234 237 238 237 237 240 243 246 253 253 243 239 240 240 239 237 243 252 252 242 222 225 231 226 229 233 234 238 239 240 241 238 234 231 228
227 227 226 225 225 228 229 226 226 227 228 227 222 211 205 207 207 209 212 204 201 213 217 214 216 217 219 227 228 224 219 215 216 216 216 216 215 219 223 225 226 225 226 228 231 232 231 232 231 230 231 230 229 229 230 231 231 228 230 237 241 248 256 251 242 238 237 238 236 238 248 252 243 228 228 233 230 229 232 233 236 237 238 238 238 236 233 231
224 225 227 227 225 226 227 227 224 227 229 226 223 218 209 206 205 208 211 210 203 208 216 214 215 218 220 223 225 221 219 218 218 215 214 215 216 218 222 224 226 225 225 228 230 232 232 231 229 228 229 226 222 222 222 225 228 226 225 234 245 251 258 257 246 238 235 237 238 237 242 248 243 233 230 233 233 231 233 234 235 237 238 237 237 236 234 233
224 223 226 228 227 226 225 227 225 227 230 225 224 224 218 210 205 206 208 211 209 206 218 220 215 219 222 223 224 222 221 220 217 213 211 211 213 215 215 217 221 221 222 224 225 227 227 225 224 222 222 220 218 217 215 214 214 215 224 235 245 249 252 253 249 244 237 236 239 240 243 246 243 235 230 232 235 234 234 235 235 237 238 238 238 238 236 235
226 223 224 226 228 227 225 227 228 229 230 226 226 227 226 219 209 204 204 210 212 205 218 222 214 216 220 222 225 226 225 223 217 214 212 209 211 214 214 215 218 218 217 219 221 220 220 221 219 218 217 214 211 210 210 209 209 217 231 238 242 244 246 250 251 250 245 239 239 242 245 246 244 238 231 230 236 239 237 235 234 235 236 236 237 238 237 236
227 225 224 225 227 228 226 225 227 231 231 227 228 230 230 227 219 207 201 208 214 209 211 214 211 213 217 222 226 226 228 227 221 215 214 211 210 212 214 214 215 216 215 215 216 217 216 213 209 211 213 210 210 211 214 217 222 234 243 245 247 249 251 256 258 256 255 250 245 245 247 247 245 242 235 230 234 240 240 238 236 235 234 234 236 238 239 238
227 227 225 224 226 228 227 224 224 228 230 226 226 228 229 228 226 215 204 208 215 212 209 210 214 216 217 222 224 222 223 224 221 216 214 211 209 210 211 210 210 212 217 217 216 216 216 215 213 214 214 214 217 218 220 225 228 235 241 243 245 249 252 257 261 261 260 258 255 251 249 247 245 243 239 234 234 237 239 241 240 236 234 235 237 238 241 240
225 227 226 224 225 227 228 226 223 224 225 224 221 224 227 227 227 219 208 211 215 214 212 210 215 216 216 222 224 223 221 218 217 215 212 209 207 208 208 208 207 205 210 214 217 217 216 220 222 221 220 220 224 223 223 225 225 228 232 236 240 245 249 252 257 260 260 259 258 254 250 247 244 243 242 239 237 235 235 238 237 232 231 235 238 238 240 239
224 226 227 226 225 226 228 227 224 222 221 221 218 221 227 229 229 221 213 218 221 220 219 215 211 209 212 221 224 226 224 218 214 210 207 207 205 206 207 206 206 205 206 206 210 214 216 222 224 223 221 219 220 221 221 224 225 226 228 232 237 241 247 250 251 254 257 259 260 257 252 248 245 244 243 241 240 237 234 235 235 232 232 234 239 240 239 237
223 225 227 227 225 225 228 229 226 223 221 220 219 222 228 230 230 225 221 228 230 227 227 222 214 203 205 219 223 224 225 221 217 210 207 209 207 207 208 207 206 206 207 208 208 210 215 221 223 222 221 218 215 214 217 222 225 226 227 230 234 238 244 249 251 255 258 258 258 258 256 251 245 243 242 241 242 240 236 235 234 234 236 237 240 243 241 239
222 223 226 228 229 226 227 230 229 225 222 224 223 224 228 228 228 226 226 234 236 234 233 229 224 211 202 219 225 222 223 223 221 216 209 207 207 206 208 210 209 207 210 214 215 217 221 224 222 220 220 218 216 213 214 219 222 226 228 229 234 237 242 250 256 260 263 262 258 258 263 259 249 243 241 239 240 241 239 237 235 235 238 239 241 244 245 244
220 223 225 228 232 230 229 230 229 228 225 226 227 225 225 224 224 225 227 237 241 239 235 234 234 223 211 222 227 222 223 224 223 220 215 211 208 204 204 208 210 210 211 214 216 219 224 224 220 217 215 214 215 214 216 219 220 224 228 229 233 237 242 249 254 258 262 266 263 258 263 265 257 249 246 242 240 240 239 240 238 236 238 241 243 244 246 246
220 222 224 227 233 234 233 231 228 230 227 226 227 224 223 223 221 221 222 235 246 244 239 237 239 229 220 224 223 217 217 220 221 220 218 217 214 209 204 204 208 213 213 211 212 217 221 223 219 219 219 214 215 216 217 219 218 223 231 232 231 233 237 241 244 249 253 258 263 253 250 268 270 262 255 249 246 243 241 241 241 239 239 242 243 245 245 245
221 222 223 226 231 235 236 232 230 230 228 225 225 223 220 221 219 216 218 232 248 244 241 238 237 231 226 223 214 206 206 212 215 215 215 215 215 213 208 205 206 210 213 206 205 215 220 218 214 216 218 214 214 217 218 217 217 224 233 232 228 229 229 233 238 241 249 260 261 253 255 269 271 265 261 256 253 250 247 245 244 243 242 243 244 245 245 244
222 221 224 226 229 235 235 234 233 228 225 225 224 221 215 217 218 211 211 221 244 241 239 236 236 233 229 223 210 204 206 211 207 203 210 213 211 210 209 212 210 207 209 205 203 213 218 214 211 210 210 213 218 222 221 217 216 223 231 229 224 224 225 229 236 239 253 273 268 258 260 268 271 269 266 264 261 257 253 248 246 245 244 245 246 246 247 246
224 223 226 227 229 233 234 236 234 224 222 225 223 217 210 213 212 206 212 218 219 233 236 230 232 230 225 221 214 207 208 213 205 196 202 207 207 208 206 211 214 208 206 209 209 211 215 216 216 212 209 213 219 222 220 216 214 217 223 226 221 222 228 231 237 244 255 272 268 261 260 264 275 273 265 263 263 260 258 255 250 247 246 246 247 247 247 248
229 228 228 230 231 231 232 236 230 219 221 225 221 215 210 208 203 200 217 225 215 227 231 218 223 224 217 210 211 209 206 211 209 199 197 200 204 208 206 206 211 208 202 206 211 212 213 212 212 211 212 214 216 215 214 213 213 211 210 209 204 213 227 233 239 244 253 263 261 258 254 255 277 277 266 262 263 264 266 265 260 254 248 246 246 247 247 250
233 233 232 233 232 231 232 231 224 221 225 223 217 213 210 208 204 202 217 211 213 225 223 213 213 217 214 202 200 204 204 207 209 201 193 194 199 203 202 199 200 200 196 197 204 210 211 206 205 207 209 213 215 212 209 209 210 210 208 199 180 190 207 226 237 230 235 253 249 250 250 246 251 259 268 270 266 268 271 268 267 262 254 246 243 244 246 248
235 235 236 234 233 233 229 223 222 227 228 221 215 211 209 210 208 208 209 205 210 214 211 211 209 210 211 202 195 198 199 200 204 203 198 196 196 198 201 199 194 186 183 190 195 201 205 204 204 206 209 212 214 209 204 206 208 209 208 196 178 164 182 210 221 212 234 245 234 233 232 238 247 251 254 260 263 268 271 271 275 273 267 254 242 237 240 243
238 237 238 234 234 234 226 220 225 231 228 222 218 214 214 213 209 206 202 201 202 194 203 210 215 215 209 201 195 192 195 196 197 201 202 199 197 198 201 203 199 191 184 188 188 187 193 204 207 208 211 213 214 208 199 196 198 201 200 190 182 168 146 210 201 190 252 243 228 221 212 240 255 261 262 262 267 270 271 272 272 271 270 260 241 231 235 240
240 239 239 236 235 233 224 222 229 231 226 222 219 217 217 215 207 205 203 202 202 191 200 206 210 213 209 206 201 192 189 191 193 195 196 195 194 194 196 200 201 199 193 187 187 187 183 197 209 209 211 212 213 213 210 205 200 200 202 196 193 188 164 196 198 190 229 207 197 197 204 244 251 257 261 260 271 274 272 270 264 264 264 256 238 227 231 239
242 241 240 238 235 233 226 225 231 231 223 219 222 222 217 211 205 205 206 207 208 201 196 200 203 200 199 207 208 201 193 186 188 191 191 192 193 193 196 198 199 200 195 187 188 192 192 200 208 208 212 215 213 212 214 212 204 200 200 201 203 201 186 149 197 209 194 145 194 199 216 240 241 244 246 240 254 266 251 247 261 278 271 256 242 227 225 236
245 243 241 240 236 232 230 228 232 232 222 218 225 223 218 216 210 207 208 208 212 213 192 189 197 191 187 196 200 200 199 188 185 187 189 193 196 195 197 199 199 200 197 191 187 190 194 203 209 207 209 214 215 212 210 208 201 193 193 201 207 206 199 177 189 210 190 202 234 221 235 248 252 259 257 252 254 244 202 232 280 298 280 256 241 225 223 235
246 244 243 241 236 231 231 231 232 234 224 219 226 225 221 222 216 211 210 209 211 216 203 187 190 186 183 189 191 193 195 189 186 185 185 189 196 198 198 200 202 203 203 201 195 193 193 195 201 205 206 208 209 210 212 215 209 197 197 204 205 201 208 215 208 146 155 232 249 232 243 253 256 260 262 263 256 244 237 250 263 265 261 256 243 227 230 244
247 248 246 239 234 232 232 231 232 233 225 221 228 229 224 222 218 212 211 211 211 213 210 197 188 186 186 189 191 191 190 187 186 184 182 184 193 200 200 201 204 205 207 206 204 203 197 188 190 201 205 207 204 199 204 213 215 212 212 209 200 193 206 210 201 184 189 216 276 241 245 254 249 245 246 239 193 209 214 236 248 249 248 246 241 239 249 257
250 255 250 239 233 234 233 234 234 231 225 223 225 226 222 220 219 215 211 211 212 211 211 206 197 192 189 190 193 192 190 189 185 183 183 183 191 201 203 205 206 205 207 206 208 209 202 191 185 195 200 199 198 197 198 202 207 211 216 212 204 201 206 206 202 204 189 174 249 267 267 256 254 253 253 252 249 240 240 259 267 260 244 238 245 257 265 266
250 257 250 239 234 236 236 238 236 230 226 223 221 222 221 217 216 215 212 211 212 211 209 210 208 201 193 192 194 192 193 192 186 184 187 188 191 199 202 205 206 204 204 204 207 209 204 198 187 185 190 190 193 200 204 203 199 198 202 204 203 202 200 206 211 215 211 163 203 246 283 257 258 262 260 260 262 257 257 268 266 247 233 235 245 259 271 271
250 255 248 242 241 240 238 239 233 227 225 222 219 220 220 216 211 210 210 211 212 212 211 210 212 209 202 197 195 192 191 191 187 185 188 189 191 196 200 204 207 205 199 197 203 206 203 202 193 179 183 192 198 204 208 209 206 202 200 199 202 200 191 189 212 219 218 217 215 183 276 265 260 256 254 261 271 265 266 273 256 230 229 233 240 254 273 281
249 249 245 245 249 246 240 236 230 224 223 219 216 217 217 214 209 206 206 208 210 212 210 210 212 212 210 207 202 195 191 189 188 187 190 194 196 201 203 203 206 207 202 197 201 203 200 198 190 181 189 197 202 206 208 211 213 212 209 207 206 203 199 196 199 213 211 217 232 219 283 266 260 261 267 267 269 268 265 262 241 222 232 237 242 252 261 269
246 244 244 246 253 253 245 234 225 221 220 217 216 216 213 209 206 204 203 205 208 208 206 210 211 207 209 212 207 197 192 190 189 190 194 198 202 205 204 202 203 206 204 199 197 197 198 196 182 170 182 192 199 208 211 212 213 214 217 216 212 208 208 207 208 214 203 208 223 209 259 260 258 257 251 235 207 243 210 223 249 254 254 252 250 251 254 256
248 249 250 250 249 250 244 230 220 216 216 215 214 212 208 205 204 202 201 202 205 205 202 207 210 204 204 209 206 198 193 190 190 193 196 199 203 203 202 202 203 203 203 203 200 197 197 194 179 157 146 182 198 208 211 211 212 213 216 217 216 214 212 211 216 222 216 218 218 193 232 253 256 257 246 241 247 240 224 259 286 282 282 283 270 260 258 256
256 257 255 252 247 241 235 226 217 213 212 210 207 204 200 199 201 202 202 202 205 205 202 203 208 208 204 204 203 199 197 195 191 192 197 200 202 203 203 204 204 205 206 207 204 200 196 191 188 179 160 175 195 202 205 207 208 212 215 216 217 217 214 213 215 215 227 230 217 206 231 244 248 252 250 235 229 231 233 259 279 288 297 296 287 280 276 266
259 259 255 251 244 234 227 223 217 211 207 203 199 196 194 193 196 201 202 201 203 206 204 201 204 208 208 206 203 199 198 200 197 194 196 199 202 204 205 206 207 208 209 208 206 203 197 197 201 199 196 199 202 204 207 208 205 207 213 215 215 215 215 214 212 215 227 228 220 225 236 244 245 244 237 223 230 246 241 230 243 262 294 309 298 291 293 285
255 252 247 244 236 223 219 218 214 208 204 198 194 191 190 190 191 195 200 202 202 203 204 203 203 204 205 205 203 200 199 201 201 199 197 199 203 203 205 208 208 208 208 208 208 203 196 200 208 208 211 213 210 207 213 213 209 210 212 213 214 214 214 213 214 223 227 221 230 237 238 242 247 244 239 238 244 243 222 217 239 257 282 303 296 292 296 290
247 240 237 237 225 212 209 210 207 203 199 196 194 190 188 189 191 191 194 199 202 202 203 205 205 204 206 206 204 202 198 196 200 202 199 199 201 200 198 201 204 206 206 204 207 206 199 203 211 211 214 217 213 212 218 217 216 219 219 218 218 215 214 216 218 226 227 221 234 241 238 241 247 248 247 247 246 239 229 232 249 263 276 282 275 279 287 283
239 233 235 231 215 206 205 204 202 199 195 192 191 190 188 188 191 192 192 194 198 202 205 207 207 206 207 208 207 203 198 197 198 200 202 203 204 201 194 190 195 203 204 203 206 209 206 208 213 213 214 216 215 216 222 222 220 221 222 224 224 220 219 222 224 228 228 228 235 242 244 245 249 252 254 254 253 250 248 249 258 267 273 270 267 271 273 271
228 229 230 215 203 200 199 198 198 196 193 190 188 189 190 190 190 192 193 194 195 198 203 207 210 210 208 208 208 205 205 207 207 206 209 207 205 205 204 203 203 200 199 204 207 208 210 213 214 211 211 213 215 218 223 225 225 225 223 224 226 225 226 227 229 230 228 230 237 242 246 250 251 252 254 256 259 258 258 260 263 267 270 269 270 267 260 259
221 227 219 199 193 193 191 191 194 192 189 188 188 188 189 191 191 191 193 198 199 199 201 204 207 208 208 207 207 208 210 213 214 217 220 220 218 219 216 214 210 201 195 201 205 205 208 212 211 206 204 210 214 216 219 223 226 227 225 224 224 226 227 228 231 232 229 231 237 239 242 248 251 251 251 253 255 256 259 264 267 270 271 272 271 264 255 256
213 214 202 190 188 188 186 188 191 189 186 187 189 189 189 192 193 191 191 195 202 206 208 207 205 205 203 201 205 210 213 214 216 219 224 228 229 228 225 220 215 209 201 198 199 202 204 205 204 200 200 208 211 211 213 214 212 217 225 229 230 230 231 232 233 236 234 233 235 236 240 246 250 253 253 253 253 255 259 266 269 272 272 269 264 261 258 259
Height
3035 3039 3042 3046 3050 3054 3057 3061 3065 3068 3072 3076 3081 3084 3087 3089 3091 3094 3096 3099 3102 3104 3108 3110 3113 3115 3117 3119 3120 3122 3125 3128 3131 3133 3136 3139 3141 3144 3146 3149 3150 3152 3155 3157 3159 3161 3162 3165 3167 3168 3170 3172 3173 3175 3177 3178 3179 3180 3181 3182 3183 3184 3186 3187 3188 3189 3189 3190 3191 3192 3192 3193 3194 3194 3195 3195 3196 3196 3197 3197 3198 3199 3199 3199 3200 3201 3202 3202
3030 3035 3039 3042 3046 3050 3054 3057 3061 3065 3069 3074 3077 3081 3084 3087 3090 3092 3094 3097 3099 3102 3104 3107 3111 3113 3115 3117 3120 3122 3123 3125 3128 3130 3133 3136 3138 3141 3144 3147 3149 3151 3154 3156 3157 3159 3161 3163 3165 3167 3169 3170 3172 3174 3175 3176 3177 3179 3180 3181 3182 3184 3185 3186 3186 3187 3188 3189 3190 3190 3191 3192 3193 3193 3194 3194 3195 3195 3196 3197 3197 3198 3199 3199 3200 3200 3201 3202
3025 3030 3035 3038 3041 3046 3050 3053 3058 3062 3066 3071 3074 3079 3083 3085 3088 3090 3092 3094 3096 3099 3101 3105 3109 3111 3113 3115 3118 3120 3122 3123 3123 3127 3132 3134 3136 3139 3142 3145 3147 3150 3153 3154 3156 3157 3159 3161 3164 3165 3167 3169 3171 3172 3173 3175 3176 3177 3178 3179 3181 3183 3184 3185 3185 3186 3186 3187 3188 3189 3190 3190 3191 3192 3193 3193 3194 3194 3195 3196 3197 3198 3198 3199 3199 3200 3201 3201
3021 3025 3030 3034 3037 3041 3046 3050 3054 3058 3063 3067 3072 3077 3080 3082 3085 3088 3090 3092 3094 3096 3099 3103 3106 3108 3111 3113 3115 3117 3120 3121 3120 3126 3131 3132 3135 3138 3140 3143 3146 3149 3152 3154 3155 3156 3157 3159 3162 3164 3166 3167 3169 3171 3172 3173 3174 3175 3176 3177 3180 3182 3183 3184 3184 3184 3185 3186 3187 3188 3188 3189 3190 3190 3191 3192 3193 3194 3194 3195 3196 3196 3197 3198 3198 3199 3200 3201
3018 3020 3026 3031 3033 3037 3042 3046 3050 3054 3059 3064 3069 3074 3077 3079 3082 3086 3088 3090 3092 3094 3097 3101 3104 3107 3109 3111 3112 3114 3118 3118 3119 3125 3129 3130 3133 3136 3139 3142 3145 3148 3150 3152 3154 3155 3156 3158 3160 3163 3164 3166 3167 3169 3170 3171 3173 3174 3174 3176 3179 3180 3181 3182 3182 3183 3184 3185 3186 3186 3187 3188 3188 3189 3190 3191 3192 3193 3193 3194 3194 3195 3195 3196 3197 3198 3198 3199
3015 3017 3021 3027 3030 3033 3038 3042 3046 3051 3055 3060 3066 3071 3073 3076 3079 3082 3085 3088 3090 3092 3095 3098 3101 3104 3106 3109 3111 3112 3114 3115 3118 3124 3126 3128 3132 3135 3138 3141 3143 3146 3148 3151 3153 3154 3155 3157 3159 3161 3163 3164 3166 3167 3168 3170 3171 3172 3173 3175 3177 3178 3179 3180 3180 3182 3183 3184 3185 3185 3186 3186 3187 3188 3189 3190 3191 3192 3192 3193 3193 3194 3194 3195 3195 3196 3197 3198
3011 3014 3018 3022 3026 3029 3034 3038 3042 3047 3052 3056 3062 3067 3069 3072 3076 3079 3083 3086 3088 3090 3093 3096 3098 3101 3103 3106 3108 3109 3110 3113 3117 3121 3123 3126 3130 3133 3136 3138 3141 3144 3146 3149 3151 3153 3154 3156 3158 3159 3161 3163 3164 3165 3166 3168 3169 3171 3172 3174 3175 3176 3178 3178 3179 3180 3181 3182 3183 3184 3185 3185 3185 3186 3187 3188 3190 3191 3191 3191 3192 3193 3193 3194 3195 3196 3197 3198
3008 3011 3014 3018 3021 3025 3030 3034 3038 3043 3047 3052 3057 3062 3065 3069 3073 3076 3080 3083 3086 3088 3090 3093 3095 3098 3100 3102 3105 3105 3106 3112 3117 3118 3120 3124 3127 3131 3134 3136 3139 3142 3144 3147 3149 3151 3153 3155 3156 3157 3159 3161 3162 3163 3165 3167 3168 3169 3171 3172 3173 3174 3176 3176 3177 3179 3180 3181 3181 3182 3183 3184 3184 3184 3185 3187 3189 3189 3189 3190 3190 3191 3192 3193 3194 3195 3196 3196
3005 3008 3011 3014 3017 3021 3026 3030 3034 3038 3043 3047 3052 3058 3062 3066 3069 3073 3077 3080 3083 3085 3087 3091 3093 3096 3097 3100 3104 3102 3104 3113 3116 3116 3118 3121 3126 3129 3132 3134 3137 3139 3141 3144 3146 3149 3152 3154 3155 3155 3157 3158 3160 3162 3163 3165 3166 3168 3169 3170 3172 3173 3174 3174 3176 3177 3178 3179 3179 3180 3181 3182 3182 3182 3184 3186 3187 3187 3188 3188 3189 3190 3190 3191 3192 3194 3195 3195
3002 3005 3008 3011 3014 3017 3022 3026 3029 3033 3038 3043 3048 3053 3058 3062 3066 3069 3074 3077 3080 3083 3085 3088 3091 3093 3093 3096 3098 3095 3103 3113 3113 3114 3117 3119 3124 3127 3130 3132 3135 3137 3139 3141 3144 3148 3151 3153 3153 3154 3155 3156 3159 3160 3161 3163 3165 3166 3167 3168 3170 3171 3172 3172 3174 3175 3177 3178 3178 3178 3179 3180 3180 3180 3182 3185 3186 3186 3186 3187 3188 3188 3189 3190 3191 3192 3193 3194
2999 3002 3005 3008 3011 3013 3018 3022 3025 3029 3034 3039 3044 3050 3054 3059 3063 3066 3071 3074 3077 3079 3082 3085 3088 3089 3090 3092 3091 3090 3103 3111 3110 3113 3116 3118 3122 3125 3128 3130 3133 3135 3136 3139 3143 3146 3148 3149 3151 3152 3153 3155 3157 3158 3159 3161 3163 3164 3165 3166 3168 3169 3170 3171 3172 3173 3175 3176 3176 3177 3177 3177 3178 3179 3181 3183 3184 3184 3185 3185 3186 3187 3187 3188 3189 3190 3191 3192
2996 2999 3001 3005 3008 3010 3014 3018 3021 3024 3029 3035 3041 3046 3051 3055 3059 3063 3067 3071 3073 3076 3079 3082 3084 3086 3088 3088 3085 3090 3104 3109 3109 3113 3115 3117 3120 3122 3125 3127 3130 3133 3135 3138 3141 3143 3145 3146 3149 3150 3152 3153 3155 3156 3157 3159 3161 3162 3163 3165 3166 3167 3168 3169 3171 3172 3173 3174 3175 3175 3175 3174 3176 3178 3180 3181 3182 3182 3183 3183 3184 3185 3185 3186 3186 3187 3189 3190
2993 2996 2999 3002 3005 3008 3011 3014 3018 3021 3024 3030 3037 3042 3047 3051 3056 3060 3063 3066 3070 3073 3076 3080 3082 3083 3083 3082 3083 3091 3101 3105 3106 3110 3112 3115 3118 3119 3122 3124 3127 3130 3133 3136 3138 3140 3142 3144 3146 3148 3149 3151 3153 3155 3155 3157 3159 3161 3162 3163 3164 3164 3166 3168 3169 3170 3171 3171 3173 3174 3173 3172 3174 3177 3178 3179 3180 3180 3181 3182 3182 3183 3184 3184 3185 3185 3187 3188
2991 2993 2996 2999 3002 3005 3008 3011 3014 3018 3022 3026 3032 3038 3042 3047 3051 3054 3059 3062 3066 3070 3073 3077 3080 3081 3079 3079 3082 3089 3097 3102 3103 3106 3109 3113 3115 3117 3119 3122 3125 3128 3132 3134 3136 3138 3139 3141 3143 3144 3146 3148 3151 3153 3154 3156 3157 3159 3160 3161 3162 3163 3164 3166 3167 3168 3169 3169 3170 3172 3170 3169 3173 3176 3175 3176 3177 3177 3178 3180 3180 3181 3182 3182 3183 3183 3184 3186
2988 2990 2993 2996 2999 3002 3005 3008 3011 3015 3020 3023 3028 3033 3038 3043 3046 3050 3055 3058 3062 3066 3070 3074 3077 3077 3076 3075 3079 3086 3092 3095 3099 3103 3107 3111 3114 3115 3116 3120 3123 3126 3130 3131 3133 3135 3137 3138 3140 3141 3143 3146 3149 3150 3152 3154 3155 3157 3158 3159 3160 3162 3163 3165 3165 3165 3166 3167 3168 3169 3167 3166 3170 3174 3173 3173 3175 3175 3176 3177 3178 3179 3179 3180 3180 3181 3182 3183
2985 2988 2990 2993 2996 3000 3002 3005 3009 3013 3016 3019 3023 3028 3033 3038 3042 3045 3050 3053 3057 3061 3065 3067 3070 3073 3072 3070 3074 3081 3084 3087 3095 3101 3104 3108 3112 3113 3115 3118 3120 3124 3126 3128 3130 3132 3134 3135 3137 3138 3140 3143 3145 3147 3150 3152 3153 3154 3156 3158 3159 3161 3161 3162 3162 3163 3164 3165 3165 3165 3164 3164 3167 3171 3171 3171 3172 3173 3174 3175 3176 3176 3177 3177 3178 3179 3180 3181
2982 2985 2988 2990 2993 2996 3000 3003 3006 3010 3013 3015 3019 3024 3028 3033 3037 3041 3045 3049 3052 3056 3060 3061 3066 3071 3069 3066 3068 3073 3077 3083 3091 3097 3100 3105 3108 3110 3112 3114 3117 3121 3123 3126 3127 3129 3130 3132 3133 3135 3137 3140 3142 3145 3147 3148 3149 3152 3155 3157 3158 3159 3159 3159 3160 3161 3162 3162 3162 3163 3162 3162 3165 3168 3169 3170 3170 3171 3171 3172 3173 3174 3175 3175 3176 3177 3177 3179
2980 2983 2985 2988 2990 2993 2997 2999 3002 3006 3008 3011 3015 3020 3023 3027 3031 3035 3039 3044 3046 3050 3055 3056 3062 3064 3059 3058 3062 3067 3073 3080 3088 3094 3097 3101 3104 3106 3109 3111 3115 3118 3120 3122 3123 3125 3126 3128 3131 3133 3134 3136 3138 3141 3142 3144 3147 3151 3153 3154 3155 3156 3157 3157 3158 3159 3160 3160 3160 3160 3159 3159 3163 3165 3166 3167 3168 3168 3169 3170 3170 3171 3172 3173 3174 3174 3175 3176
2976 2980 2983 2985 2987 2990 2993 2997 2999 3001 3004 3007 3011 3015 3018 3021 3026 3030 3034 3038 3040 3041 3043 3044 3046 3048 3050 3054 3059 3064 3072 3078 3084 3090 3092 3096 3099 3102 3105 3108 3112 3115 3116 3117 3118 3120 3122 3125 3127 3127 3128 3131 3134 3137 3140 3144 3149 3151 3152 3153 3153 3154 3155 3156 3157 3158 3158 3158 3158 3157 3156 3157 3159 3161 3163 3165 3165 3166 3166 3166 3167 3169 3169 3170 3171 3172 3173 3174
2973 2977 2980 2983 2985 2988 2990 2994 2997 2999 3001 3004 3008 3011 3013 3016 3021 3026 3029 3031 3033 3035 3038 3038 3040 3045 3050 3053 3056 3062 3069 3074 3079 3083 3086 3090 3094 3097 3100 3103 3107 3110 3111 3112 3115 3117 3120 3122 3121 3120 3123 3128 3133 3137 3141 3145 3149 3150 3150 3151 3151 3152 3153 3154 3155 3156 3157 3156 3155 3155 3154 3153 3155 3156 3159 3162 3161 3161 3162 3163 3164 3166 3167 3167 3169 3170 3171 3172
2970 2973 2977 2980 2983 2985 2988 2991 2995 2998 2999 3001 3005 3007 3009 3013 3017 3022 3026 3028 3030 3033 3035 3035 3041 3047 3049 3050 3054 3059 3063 3068 3073 3077 3081 3086 3090 3093 3095 3098 3101 3103 3105 3109 3113 3116 3118 3116 3115 3119 3124 3129 3134 3137 3140 3143 3146 3147 3148 3148 3149 3150 3150 3152 3153 3154 3154 3153 3152 3152 3151 3149 3151 3152 3155 3157 3156 3156 3159 3160 3161 3163 3164 3165 3166 3167 3168 3169
2968 2970 2973 2977 2980 2983 2985 2988 2991 2994 2996 2998 3002 3004 3007 3013 3017 3022 3026 3025 3025 3029 3029 3030 3035 3039 3045 3049 3051 3056 3060 3064 3067 3071 3077 3082 3085 3088 3090 3093 3096 3098 3101 3105 3109 3112 3112 3111 3113 3120 3126 3130 3134 3136 3139 3141 3143 3144 3145 3146 3147 3148 3149 3150 3151 3151 3152 3150 3149 3150 3147 3145 3147 3148 3150 3151 3151 3152 3155 3157 3158 3160 3160 3161 3163 3164 3165 3166
2965 2968 2971 2973 2977 2980 2981 2983 2987 2990 2993 2995 2998 3003 3008 3013 3016 3019 3023 3022 3021 3023 3025 3027 3028 3031 3039 3044 3046 3051 3055 3057 3059 3064 3072 3076 3079 3082 3085 3089 3093 3095 3098 3100 3103 3105 3105 3106 3112 3120 3125 3129 3131 3133 3136 3138 3140 3141 3142 3144 3144 3146 3148 3147 3148 3150 3149 3148 3148 3147 3144 3141 3142 3143 3143 3146 3146 3148 3151 3152 3153 3155 3156 3158 3160 3161 3162 3163
2962 2965 2968 2970 2973 2976 2978 2979 2982 2986 2990 2992 2996 3002 3007 3010 3013 3016 3021 3021 3016 3015 3020 3024 3026 3027 3031 3038 3043 3046 3049 3052 3055 3060 3067 3069 3073 3078 3082 3085 3089 3091 3094 3097 3100 3102 3102 3106 3112 3119 3123 3126 3128 3130 3132 3134 3136 3138 3139 3140 3141 3144 3146 3146 3148 3148 3147 3147 3145 3147 3143 3134 3135 3138 3137 3141 3143 3143 3146 3147 3148 3150 3152 3155 3156 3157 3159 3160
2959 2962 2964 2967 2969 2970 2974 2975 2978 2984 2987 2990 2995 3000 3004 3006 3010 3015 3020 3022 3013 3008 3015 3019 3021 3023 3028 3035 3039 3041 3047 3050 3051 3058 3064 3066 3069 3073 3078 3083 3085 3086 3090 3095 3099 3101 3102 3106 3111 3116 3119 3121 3124 3125 3127 3130 3132 3134 3135 3137 3140 3143 3145 3146 3147 3147 3146 3145 3144 3147 3141 3126 3127 3133 3132 3137 3139 3138 3141 3143 3144 3147 3149 3151 3152 3154 3156 3157
2956 2959 2962 2964 2965 2966 2970 2972 2977 2982 2984 2988 2994 2998 3001 3004 3009 3014 3019 3023 3010 3002 3009 3014 3016 3020 3024 3031 3034 3038 3044 3044 3047 3056 3061 3064 3068 3071 3076 3080 3082 3085 3089 3094 3098 3098 3099 3103 3109 3113 3115 3118 3120 3121 3124 3127 3130 3132 3132 3136 3139 3141 3143 3145 3146 3146 3145 3143 3142 3145 3140 3125 3122 3126 3129 3133 3133 3133 3138 3138 3140 3143 3145 3146 3148 3150 3152 3154
2953 2956 2959 2960 2962 2964 2966 2970 2975 2977 2981 2989 2994 2997 3001 3004 3008 3013 3020 3021 3006 2996 3004 3008 3011 3017 3020 3026 3030 3030 3029 3033 3044 3051 3054 3061 3066 3069 3073 3075 3077 3081 3086 3091 3094 3092 3093 3099 3105 3108 3111 3114 3114 3115 3119 3123 3127 3128 3129 3134 3137 3139 3142 3143 3145 3145 3143 3142 3141 3141 3141 3130 3118 3118 3125 3129 3129 3129 3133 3135 3136 3139 3141 3142 3144 3147 3149 3151
2949 2953 2955 2957 2959 2960 2963 2967 2970 2974 2983 2990 2992 2996 3000 3003 3007 3012 3017 3013 2997 2990 2999 3003 3008 3015 3019 3022 3025 3022 3020 3026 3035 3040 3049 3058 3060 3063 3069 3071 3073 3077 3082 3086 3087 3087 3090 3095 3099 3103 3107 3109 3109 3111 3116 3121 3124 3124 3127 3132 3135 3138 3140 3142 3143 3143 3143 3142 3136 3136 3141 3132 3113 3112 3121 3124 3123 3124 3126 3129 3131 3133 3136 3138 3140 3143 3145 3147
2945 2949 2951 2953 2955 2957 2960 2963 2965 2975 2984 2985 2987 2993 2998 3002 3006 3010 3011 3001 2988 2988 2994 2999 3004 3009 3013 3017 3018 3018 3020 3024 3028 3034 3045 3052 3054 3059 3063 3067 3073 3077 3082 3085 3085 3087 3090 3094 3098 3101 3103 3104 3106 3110 3114 3119 3121 3123 3126 3129 3134 3137 3138 3141 3142 3141 3144 3139 3130 3132 3140 3133 3111 3106 3117 3120 3117 3118 3119 3123 3126 3128 3132 3133 3136 3139 3141 3143
2941 2944 2947 2949 2951 2954 2957 2958 2964 2976 2980 2979 2984 2990 2996 2998 2999 3002 2999 2988 2984 2987 2990 2994 2997 2999 3006 3011 3011 3013 3017 3020 3024 3032 3040 3044 3050 3057 3059 3066 3073 3075 3080 3085 3086 3088 3090 3094 3099 3101 3103 3102 3103 3107 3113 3119 3121 3122 3126 3128 3133 3136 3137 3140 3139 3141 3144 3133 3126 3131 3137 3137 3117 3100 3106 3113 3111 3113 3115 3118 3121 3124 3127 3129 3131 3134 3137 3139
2936 2939 2942 2944 2947 2951 2953 2956 2965 2972 2972 2975 2982 2987 2990 2992 2991 2989 2984 2982 2985 2986 2986 2990 2992 2994 3001 3005 3005 3008 3012 3014 3018 3024 3032 3038 3045 3049 3054 3061 3066 3072 3077 3079 3082 3086 3089 3092 3094 3096 3099 3100 3102 3106 3112 3117 3118 3121 3124 3127 3132 3134 3136 3138 3137 3140 3138 3126 3126 3130 3133 3138 3119 3096 3099 3107 3107 3111 3113 3114 3117 3119 3122 3124 3127 3130 3133 3134
2931 2934 2937 2939 2942 2946 2949 2956 2963 2965 2966 2972 2978 2980 2984 2984 2979 2975 2978 2984 2984 2978 2980 2987 2989 2991 2996 3001 3002 3003 3006 3008 3011 3018 3024 3031 3036 3040 3044 3048 3052 3060 3067 3071 3076 3081 3084 3086 3087 3091 3094 3095 3099 3104 3109 3113 3115 3118 3122 3126 3131 3133 3136 3137 3135 3136 3131 3124 3127 3129 3131 3128 3106 3092 3100 3104 3104 3108 3109 3111 3114 3116 3118 3120 3123 3126 3128 3129
2926 2929 2931 2934 2937 2941 2947 2954 2957 2958 2962 2968 2971 2975 2977 2971 2963 2967 2978 2982 2976 2973 2977 2983 2987 2991 2993 2997 2999 3000 3003 3004 3006 3013 3021 3027 3032 3037 3042 3045 3047 3050 3055 3064 3070 3075 3081 3085 3085 3087 3089 3090 3093 3097 3100 3103 3108 3114 3117 3122 3125 3128 3132 3132 3131 3131 3126 3123 3124 3128 3131 3118 3097 3093 3100 3100 3103 3105 3106 3108 3110 3111 3114 3115 3118 3121 3123 3125
2920 2923 2926 2929 2932 2937 2944 2949 2950 2954 2959 2962 2964 2967 2963 2955 2956 2966 2972 2972 2972 2974 2976 2978 2984 2990 2990 2992 2995 2998 3001 3002 3003 3009 3016 3023 3028 3034 3039 3043 3046 3050 3055 3062 3065 3068 3075 3078 3078 3080 3082 3085 3089 3093 3096 3100 3106 3110 3113 3117 3117 3117 3120 3121 3122 3122 3120 3120 3122 3127 3125 3107 3094 3096 3096 3097 3101 3102 3102 3105 3105 3107 3110 3112 3114 3117 3119 3122
2914 2917 2920 2923 2926 2932 2940 2944 2946 2950 2952 2954 2957 2954 2945 2943 2952 2960 2962 2966 2972 2971 2972 2976 2981 2984 2987 2990 2993 2996 2997 2999 3001 3005 3009 3013 3019 3025 3031 3036 3041 3046 3049 3055 3060 3064 3068 3070 3071 3075 3079 3082 3086 3091 3096 3100 3104 3108 3111 3114 3113 3112 3113 3115 3117 3116 3117 3120 3119 3118 3109 3094 3090 3094 3094 3097 3099 3100 3102 3102 3103 3106 3107 3108 3110 3112 3116 3119
2909 2911 2914 2915 2920 2929 2935 2938 2941 2943 2945 2949 2946 2937 2933 2940 2948 2951 2956 2963 2967 2966 2970 2974 2974 2977 2982 2985 2989 2992 2995 2997 2999 3001 3005 3010 3015 3019 3024 3030 3035 3039 3042 3047 3052 3058 3064 3068 3069 3073 3077 3081 3085 3089 3092 3095 3099 3103 3106 3106 3106 3110 3113 3114 3115 3115 3118 3117 3111 3107 3099 3091 3093 3092 3091 3096 3097 3098 3101 3100 3102 3105 3105 3106 3107 3109 3114 3116
2904 2905 2906 2908 2915 2924 2928 2933 2936 2936 2939 2941 2933 2926 2932 2940 2943 2947 2953 2957 2960 2964 2968 2966 2965 2969 2974 2979 2984 2987 2992 2996 2997 2997 3001 3007 3013 3018 3023 3029 3033 3037 3041 3045 3048 3051 3057 3063 3067 3071 3074 3078 3083 3088 3091 3094 3096 3097 3099 3100 3104 3112 3113 3113 3114 3115 3117 3115 3107 3101 3096 3093 3096 3091 3087 3092 3092 3094 3098 3098 3101 3103 3103 3105 3106 3109 3111 3112
2899 2899 2897 2899 2910 2918 2922 2926 2927 2929 2933 2931 2924 2925 2930 2933 2938 2944 2948 2951 2956 2961 2962 2960 2961 2965 2967 2972 2979 2984 2988 2990 2993 2996 2998 3003 3008 3013 3019 3025 3029 3034 3038 3043 3047 3050 3053 3060 3066 3069 3071 3075 3080 3085 3088 3090 3092 3092 3094 3097 3102 3107 3107 3108 3111 3111 3112 3112 3105 3097 3094 3091 3088 3084 3085 3089 3090 3091 3095 3096 3098 3100 3102 3103 3104 3106 3107 3107
2894 2893 2886 2890 2904 2911 2915 2919 2919 2923 2923 2916 2914 2920 2922 2926 2934 2941 2944 2948 2953 2955 2957 2958 2960 2963 2965 2968 2974 2981 2985 2985 2986 2991 2994 2998 3003 3007 3012 3017 3022 3029 3035 3040 3044 3047 3051 3056 3061 3065 3067 3072 3076 3078 3079 3081 3085 3090 3094 3096 3098 3100 3100 3101 3104 3103 3104 3107 3102 3096 3093 3084 3077 3077 3082 3087 3089 3091 3093 3094 3096 3098 3099 3100 3101 3102 3103 3103
2890 2887 2874 2879 2897 2903 2908 2912 2910 2910 2907 2904 2909 2915 2917 2922 2928 2934 2940 2945 2947 2948 2952 2957 2959 2960 2962 2967 2972 2977 2982 2983 2983 2985 2988 2993 2998 3003 3009 3013 3017 3024 3031 3038 3041 3045 3049 3052 3057 3062 3065 3069 3070 3070 3071 3072 3076 3081 3085 3088 3090 3093 3096 3098 3100 3099 3098 3101 3099 3097 3090 3076 3072 3077 3080 3083 3086 3088 3090 3091 3092 3095 3096 3097 3098 3099 3099 3100
2887 2881 2861 2867 2887 2896 2902 2901 2895 2896 2897 2899 2905 2909 2912 2917 2922 2929 2936 2941 2944 2947 2951 2955 2958 2958 2959 2965 2970 2974 2979 2981 2982 2983 2985 2989 2993 2998 3004 3009 3013 3018 3026 3033 3037 3041 3045 3048 3053 3057 3060 3063 3064 3066 3069 3072 3074 3075 3076 3079 3081 3085 3090 3092 3094 3093 3094 3096 3095 3096 3088 3071 3069 3077 3077 3080 3084 3085 3088 3089 3089 3092 3093 3094 3096 3096 3096 3097
2882 2868 2847 2858 2877 2884 2891 2887 2883 2888 2888 2888 2896 2902 2909 2914 2917 2923 2929 2936 2942 2945 2949 2952 2953 2955 2958 2961 2966 2971 2976 2977 2979 2981 2982 2985 2988 2991 2997 3003 3008 3014 3019 3024 3029 3034 3039 3044 3049 3053 3057 3061 3064 3067 3070 3072 3076 3078 3078 3079 3080 3083 3084 3084 3086 3086 3090 3093 3092 3096 3090 3069 3065 3075 3076 3078 3082 3082 3085 3086 3086 3089 3090 3091 3093 3093 3094 3094
2868 2850 2837 2855 2871 2874 2878 2875 2874 2878 2878 2882 2893 2900 2905 2907 2909 2916 2923 2929 2935 2939 2944 2947 2948 2952 2956 2959 2963 2967 2971 2974 2976 2977 2978 2983 2986 2990 2995 2999 3004 3011 3016 3020 3025 3031 3037 3041 3046 3052 3058 3062 3064 3067 3069 3072 3075 3075 3074 3074 3075 3077 3078 3081 3084 3084 3087 3090 3088 3095 3092 3067 3060 3073 3076 3077 3080 3081 3083 3084 3085 3087 3087 3089 3090 3090 3091 3091
2853 2839 2831 2849 2864 2864 2863 2861 2863 2867 2871 2879 2887 2891 2898 2901 2901 2907 2913 2920 2926 2933 2939 2941 2945 2950 2953 2957 2960 2962 2966 2970 2974 2977 2979 2981 2985 2989 2994 2998 3001 3006 3010 3014 3017 3023 3030 3035 3039 3048 3058 3064 3066 3066 3066 3066 3065 3063 3063 3066 3069 3073 3078 3083 3085 3085 3086 3085 3085 3092 3087 3063 3057 3069 3073 3074 3078 3080 3082 3082 3083 3085 3086 3087 3088 3088 3088 3088
2845 2834 2825 2837 2851 2852 2849 2849 2855 2859 2864 2872 2877 2882 2890 2894 2894 2899 2907 2915 2923 2929 2934 2938 2943 2949 2953 2955 2958 2960 2963 2964 2968 2975 2979 2981 2984 2987 2992 2997 3001 3004 3008 3013 3016 3020 3026 3029 3030 3035 3042 3048 3050 3049 3047 3048 3051 3054 3058 3062 3066 3071 3076 3078 3081 3084 3082 3079 3081 3083 3072 3056 3057 3066 3069 3072 3076 3078 3081 3081 3081 3083 3084 3085 3086 3086 3086 3086
2839 2829 2820 2827 2836 2838 2838 2843 2848 2850 2854 2863 2869 2872 2878 2883 2890 2899 2905 2911 2918 2924 2931 2936 2941 2945 2948 2950 2954 2958 2961 2963 2965 2969 2974 2979 2982 2985 2990 2994 2999 3004 3008 3012 3017 3022 3026 3028 3028 3027 3027 3029 3031 3032 3036 3040 3045 3050 3054 3058 3062 3067 3071 3075 3080 3079 3074 3074 3077 3073 3062 3055 3057 3064 3067 3070 3074 3076 3078 3079 3079 3080 3081 3083 3084 3084 3084 3085
2831 2821 2815 2820 2824 2824 2828 2834 2838 2841 2846 2853 2859 2862 2869 2876 2885 2893 2900 2906 2912 2920 2928 2933 2936 2937 2938 2943 2949 2954 2958 2962 2965 2967 2972 2977 2980 2984 2989 2993 2997 3002 3006 3010 3014 3018 3022 3023 3025 3027 3028 3030 3032 3035 3038 3042 3046 3049 3051 3055 3060 3064 3070 3073 3074 3070 3069 3074 3071 3060 3056 3054 3052 3059 3066 3068 3071 3074 3075 3076 3076 3077 3079 3081 3082 3083 3083 3084
2818 2809 2807 2814 2813 2810 2815 2822 2828 2835 2841 2846 2851 2855 2860 2869 2876 2882 2891 2901 2908 2915 2921 2924 2926 2929 2933 2938 2944 2950 2955 2960 2963 2965 2969 2973 2976 2981 2986 2992 2997 3000 3004 3010 3012 3014 3017 3018 3020 3024 3027 3031 3034 3036 3038 3041 3046 3049 3051 3054 3056 3061 3065 3065 3066 3064 3066 3068 3056 3045 3051 3054 3049 3054 3062 3064 3069 3072 3072 3073 3073 3074 3078 3080 3081 3081 3082 3082
2805 2800 2801 2808 2805 2799 2802 2811 2821 2830 2834 2839 2845 2847 2851 2859 2868 2876 2884 2893 2901 2908 2912 2915 2919 2925 2932 2937 2940 2942 2945 2949 2954 2959 2963 2968 2972 2976 2980 2988 2994 2998 3002 3006 3009 3012 3015 3015 3017 3021 3025 3029 3033 3035 3037 3040 3044 3046 3049 3051 3052 3056 3059 3060 3060 3058 3057 3056 3047 3044 3054 3054 3049 3053 3057 3059 3065 3067 3068 3070 3070 3071 3075 3077 3078 3079 3080 3081
2791 2790 2792 2796 2796 2795 2797 2803 2811 2820 2828 2833 2837 2842 2847 2853 2861 2871 2878 2884 2891 2899 2906 2910 2916 2923 2929 2933 2935 2936 2936 2939 2944 2949 2953 2959 2964 2968 2972 2976 2981 2989 2997 3001 3004 3008 3011 3013 3015 3019 3024 3027 3030 3032 3034 3037 3040 3042 3045 3047 3050 3053 3055 3053 3050 3048 3050 3051 3048 3051 3055 3048 3043 3050 3054 3055 3059 3061 3064 3067 3067 3069 3072 3073 3075 3076 3077 3078
2782 2783 2782 2782 2784 2789 2793 2799 2805 2812 2819 2826 2829 2835 2845 2851 2857 2865 2873 2880 2886 2893 2900 2907 2914 2921 2926 2929 2930 2932 2935 2938 2940 2942 2944 2948 2953 2958 2962 2966 2970 2978 2987 2993 2997 3001 3005 3009 3012 3016 3021 3022 3024 3028 3031 3033 3037 3040 3042 3044 3045 3044 3042 3040 3039 3041 3046 3048 3048 3051 3047 3037 3035 3045 3050 3052 3055 3057 3059 3062 3064 3066 3069 3070 3071 3072 3073 3075
2776 2776 2776 2776 2780 2784 2787 2794 2802 2807 2810 2816 2823 2829 2837 2847 2855 2861 2868 2877 2885 2892 2899 2906 2912 2917 2919 2921 2923 2927 2934 2938 2942 2945 2946 2948 2953 2957 2960 2965 2968 2971 2976 2984 2990 2994 2999 3003 3006 3011 3015 3017 3019 3024 3027 3032 3035 3034 3032 3032 3032 3031 3032 3035 3037 3038 3040 3042 3042 3039 3033 3030 3034 3041 3045 3048 3050 3052 3055 3058 3060 3062 3064 3065 3067 3068 3070 3071